Saint Petersburg, Russia

6:54 PM MSK on August 04, 2015 (GMT +0300)
Pulkovo | | Change Station
CLOSE
Current Station
Airport
Location: St. Petersburg,
Elevation: 75 ft
Nearby Weather Stations

Elev 75 ft 59.80 °N, 30.27 °E | Updated 24 minutes ago

Scattered Clouds
Scattered Clouds
66 °F
Feels Like 66 °F
N
13
Wind Variable Wind from NW

Today
High -- | Low -- °F
--% Chance of Precip.
Yesterday
High -- | Low -- °F
Precip. -- in
4:45 AM 9:22 PM
Waning Gibbous, 76% visible
Pressure 30.15 in
Visibility 6.2 miles
Clouds Scattered Clouds 4300 ft
Dew Point 55 °F
Humidity 68%
Rainfall 0.00 in
Snow Depth Not available.
UV 1 out of 12
Pollen Not available.
Air Quality Not available.
Flu Activity Not available.
METAR ULLI 041530Z 31006MPS 9999 SCT043 19/13 Q1021 R28L/090070 NOSIG

More Conditions Fewer Conditions

Pressure 30.15 in
Visibility 6.2 miles
Clouds Scattered Clouds 4300 ft
Dew Point 55 °F
Humidity 68%
Rainfall 0.00 in
Snow Depth Not available.
UV 1 out of 12
Pollen Not available.
Air Quality Not available.
Flu Activity Not available.
METAR ULLI 041530Z 31006MPS 9999 SCT043 19/13 Q1021 R28L/090070 NOSIG

More Conditions Fewer Conditions

10-Day Weather Forecast

×

Almanac

Astronomy

Aug. 04, 2015 Rise Set
Actual Time
Civil Twilight
Nautical Twilight
Astronomical Twilight
Moon
Length of Visible Light
Length of Day
Tomorrow will be .
, % of the Moon is Illuminated

Today's Extremes

Country Highs Country Lows

Community

WunderPhotos

Upload Photos

1,843,909 photos uploaded!

WunderBlogs® & News

Nearby

Air Quality

  Air Quality AQ Index Pollutant
Not available.

Snow Depth

Station Depth Elevation

Earthquake Activity

City Distance Mag. Time & Date
Minimum magnitude displayed is 2.5.

Coastal Water Temperatures

Place Temperature

Stations

Nearby Weather Stations

Station Location Temp. Windchill Dew Point Humidity Wind Precip. Elev Updated Type